sat.trackr.live / text

‹ back to catalog

HULIANWANG DIGUI-81

NORAD 65313 · 2025-187J

PAYLOAD ACTIVE UNKNOWN

§ Identity

Operator
Country
PRC
Launch date
2025-08-25
Launch site
WSC
Launch vehicle
Mass (kg)
RCS (m²)

External: N2YO · Heavens-Above · Gunter

§ Orbital elements

Epoch: 2026-09-20T21:47:37.838112Z

Period
108.33 min
Inclination
50.0060°
Eccentricity
0.0000740
Mean motion
13.29322497 rev/d
Perigee alt
1,148.8 km
Apogee alt
1,149.9 km
Semi-major
7,527.5 km
B*
5.1717e-5
RAAN
222.5692°
Arg perigee
2.3791°
Mean anomaly
357.7085°
Rev number
5,244

§ Raw data

HULIANWANG DIGUI-811 65313U 25187J   26263.90807683 -.00000100  00000+0  51717-4 0  99972 65313  50.0060 222.5692 0000740   2.3791 357.7085 13.29322497 52444

JSON: /api/v1/satellites/65313 · /tle

For live sub-satellite position, see the globe view (requires WebGL).

§ Visibility from observer

Set your observer location to see the next 7 days of passes ≥ 10°. The values pass through the URL so the page stays shareable.

No JS? Fill the form by hand. The geolocation button needs JavaScript.